| time (UTC) | temp C | wind direction | speed KPH | gust KPH | rain 1hr cm | rain 24hr cm | rain mn cm | humidity % | barometer mb |
| 20260510175556 | 20 | 321 | 0.0 | 1.6 | 0.00 | 0.15 | 0.15 | 57 | 1018.1 |
| 20260510175052 | 20 | 193 | 1.6 | 3.2 | 0.00 | 0.15 | 0.15 | 61 | 1018.1 |
| 20260510174551 | 19 | 245 | 1.6 | 1.6 | 0.00 | 0.15 | 0.15 | 62 | 1018.4 |
| 20260510174048 | 19 | 209 | 3.2 | 4.8 | 0.00 | 0.15 | 0.15 | 61 | 1018.3 |
| 20260510173543 | 20 | 192 | 3.2 | 4.8 | 0.00 | 0.15 | 0.15 | 57 | 1018.4 |
| 20260510173040 | 19 | 227 | 1.6 | 4.8 | 0.00 | 0.15 | 0.15 | 57 | 1018.2 |
| 20260510172536 | 19 | 23 | 0.0 | 4.8 | 0.00 | 0.15 | 0.15 | 68 | 1018.2 |
| 20260510172027 | 19 | 207 | 6.4 | 9.7 | 0.00 | 0.15 | 0.15 | 62 | 1018.1 |
| 20260510171523 | 19 | 138 | 3.2 | 4.8 | 0.00 | 0.15 | 0.15 | 63 | 1018.1 |
| 20260510171020 | 20 | 213 | 3.2 | 4.8 | 0.00 | 0.15 | 0.15 | 54 | 1018.0 |
| 20260510170517 | 20 | 240 | 1.6 | 3.2 | 0.00 | 0.15 | 0.15 | 59 | 1018.1 |
| 20260510170013 | 20 | 2 | 0.0 | 3.2 | 0.00 | 0.15 | 0.15 | 64 | 1018.3 |
| 20260510165508 | 19 | 308 | 1.6 | 3.2 | 0.00 | 0.15 | 0.15 | 66 | 1018.4 |
| 20260510165006 | 19 | 341 | 0.0 | 0.0 | 0.00 | 0.15 | 0.15 | 74 | 1018.4 |
| 20260510164502 | 18 | 333 | 0.0 | 3.2 | 0.00 | 0.15 | 0.15 | 76 | 1018.3 |
| 20260510163958 | 18 | 230 | 3.2 | 4.8 | 0.00 | 0.15 | 0.15 | 73 | 1018.3 |
| 20260510163455 | 18 | 346 | 0.0 | 1.6 | 0.00 | 0.15 | 0.15 | 73 | 1018.4 |
| 20260510162949 | 17 | 317 | 0.0 | 1.6 | 0.00 | 0.15 | 0.15 | 82 | 1018.4 |
| 20260510162446 | 17 | 332 | 0.0 | 1.6 | 0.00 | 0.15 | 0.15 | 82 | 1018.5 |
| 20260510161942 | 17 | 295 | 0.0 | 1.6 | 0.00 | 0.15 | 0.15 | 81 | 1018.5 |
| 20260510161438 | 17 | 333 | 0.0 | 3.2 | 0.00 | 0.15 | 0.15 | 76 | 1018.4 |
| 20260510160936 | 17 | 20 | 1.6 | 1.6 | 0.00 | 0.15 | 0.15 | 84 | 1018.4 |
| 20260510160432 | 17 | 0 | 0.0 | 0.0 | 0.00 | 0.15 | 0.15 | 86 | 1018.4 |
| 20260510155925 | 17 | 334 | 0.0 | 0.0 | 0.00 | 0.15 | 0.15 | 87 | 1018.2 |
| 20260510155422 | 16 | 322 | 0.0 | 3.2 | 0.00 | 0.15 | 0.15 | 80 | 1018.2 |
| 20260510154919 | 16 | 354 | 0.0 | 0.0 | 0.00 | 0.15 | 0.15 | 89 | 1018.2 |
| 20260510154415 | 16 | 306 | 0.0 | 1.6 | 0.00 | 0.15 | 0.15 | 86 | 1018.1 |
| 20260510153908 | 16 | 173 | 0.0 | 3.2 | 0.00 | 0.15 | 0.15 | 87 | 1018.1 |
| 20260510153405 | 16 | 8 | 0.0 | 4.8 | 0.00 | 0.15 | 0.15 | 88 | 1018.3 |
| 20260510152901 | 16 | 8 | 0.0 | 0.0 | 0.00 | 0.15 | 0.15 | 90 | 1018.1 |
| 20260510152359 | 16 | 349 | 0.0 | 0.0 | 0.00 | 0.15 | 0.15 | 94 | 1017.7 |
| 20260510151855 | 15 | 345 | 0.0 | 0.0 | 0.00 | 0.15 | 0.15 | 95 | 1017.8 |
| 20260510151353 | 15 | 342 | 0.0 | 0.0 | 0.00 | 0.15 | 0.15 | 93 | 1017.6 |
| 20260510150849 | 15 | 345 | 0.0 | 0.0 | 0.00 | 0.15 | 0.15 | 93 | 1017.5 |
| 20260510150345 | 15 | 349 | 0.0 | 0.0 | 0.00 | 0.15 | 0.15 | 91 | 1017.4 |
| 20260510145841 | 15 | 1 | 0.0 | 0.0 | 0.00 | 0.15 | 0.15 | 95 | 1017.5 |
| 20260510145337 | 15 | 342 | 0.0 | 0.0 | 0.00 | 0.15 | 0.15 | 95 | 1017.3 |
| 20260510144834 | 15 | 282 | 1.6 | 1.6 | 0.00 | 0.15 | 0.15 | 96 | 1017.2 |
| 20260510144331 | 15 | 325 | 0.0 | 0.0 | 0.00 | 0.15 | 0.15 | 98 | 1017.3 |
| 20260510143831 | 15 | 344 | 0.0 | 0.0 | 0.00 | 0.15 | 0.15 | 98 | 1017.2 |
| 20260510143327 | 14 | 338 | 0.0 | 0.0 | 0.00 | 0.15 | 0.15 | 98 | 1017.3 |
| 20260510142824 | 15 | 344 | 0.0 | 0.0 | 0.00 | 0.15 | 0.15 | 99 | 1017.1 |
| 20260510142321 | 14 | 343 | 0.0 | 0.0 | 0.00 | 0.15 | 0.15 | 99 | 1017.0 |
| 20260510141818 | 14 | 341 | 0.0 | 0.0 | 0.00 | 0.15 | 0.15 | 99 | 1017.1 |
| 20260510141316 | 14 | 3 | 0.0 | 0.0 | 0.00 | 0.15 | 0.15 | 99 | 1017.0 |
| 20260510140813 | 14 | 2 | 0.0 | 0.0 | 0.00 | 0.15 | 0.15 | 99 | 1016.7 |
| 20260510140308 | 14 | 4 | 0.0 | 0.0 | 0.13 | 0.15 | 0.15 | 99 | 1016.6 |
| 20260510135801 | 14 | 10 | 0.0 | 0.0 | 0.00 | 0.13 | 0.13 | 98 | 1016.7 |
| 20260510135257 | 14 | 341 | 0.0 | 0.0 | 0.00 | 0.13 | 0.13 | 98 | 1016.8 |
| 20260510134755 | 14 | 345 | 0.0 | 1.6 | 0.00 | 0.13 | 0.13 | 97 | 1017.1 |
| 20260510134252 | 14 | 359 | 0.0 | 0.0 | 0.30 | 0.13 | 0.13 | 96 | 1017.3 |
| 20260510133748 | 15 | 358 | 0.0 | 0.0 | 0.79 | 0.13 | 0.13 | 95 | 1017.2 |
| 20260510133244 | 15 | 358 | 0.0 | 0.0 | 0.48 | 0.08 | 0.08 | 94 | 1016.8 |
| 20260510132740 | 15 | 30 | 0.0 | 1.6 | 0.00 | 0.00 | 0.00 | 90 | 1017.2 |
| 20260510132238 | 15 | 340 | 0.0 | 0.0 | 0.00 | 0.00 | 0.00 | 89 | 1017.3 |
| 20260510131734 | 15 | 344 | 0.0 | 1.6 | 0.00 | 0.00 | 0.00 | 89 | 1016.6 |
| 20260510131233 | 15 | 16 | 0.0 | 1.6 | 0.00 | 0.00 | 0.00 | 87 | 1016.5 |
| 20260510130728 | 15 | 135 | 1.6 | 3.2 | 0.00 | 0.00 | 0.00 | 88 | 1016.6 |
| 20260510130226 | 14 | 39 | 0.0 | 1.6 | 0.00 | 0.00 | 0.00 | 91 | 1016.2 |
| 20260510125722 | 14 | 79 | 0.0 | 0.0 | 0.00 | 0.00 | 0.00 | 91 | 1016.3 |
| 20260510125218 | 13 | 96 | 0.0 | 1.6 | 0.00 | 0.00 | 0.00 | 92 | 1016.5 |
| 20260510124715 | 13 | 52 | 0.0 | 1.6 | 0.00 | 0.00 | 0.00 | 93 | 1016.2 |
| 20260510124213 | 13 | 320 | 0.0 | 1.6 | 0.00 | 0.00 | 0.00 | 95 | 1016.3 |
| 20260510123707 | 13 | 63 | 0.0 | 1.6 | 0.00 | 0.00 | 0.00 | 98 | 1016.2 |
| 20260510123204 | 13 | 333 | 0.0 | 0.0 | 0.00 | 0.00 | 0.00 | 99 | 1016.2 |
| 20260510122700 | 13 | 341 | 0.0 | 0.0 | 0.00 | 0.00 | 0.00 | 99 | 1016.1 |
| 20260510122157 | 13 | 344 | 0.0 | 0.0 | 0.00 | 0.00 | 0.00 | 99 | 1015.9 |
| 20260510121653 | 12 | 344 | 0.0 | 0.0 | 0.00 | 0.00 | 0.00 | 99 | 1016.0 |
| 20260510121150 | 12 | 339 | 0.0 | 0.0 | 0.00 | 0.00 | 0.00 | 99 | 1016.1 |
| 20260510120648 | 12 | 337 | 0.0 | 0.0 | 0.00 | 0.00 | 0.00 | 99 | 1016.1 |
| 20260510120143 | 12 | 350 | 0.0 | 0.0 | 0.00 | 0.00 | 0.00 | 99 | 1016.0 |
| 20260510115640 | 12 | 350 | 0.0 | 0.0 | 0.00 | 0.00 | 0.00 | 99 | 1016.0 |
| 20260510115138 | 12 | 0 | 0.0 | 0.0 | 0.00 | 0.00 | 0.00 | 99 | 1015.9 |
| 20260510114633 | 12 | 0 | 0.0 | 0.0 | 0.00 | 0.00 | 0.00 | 99 | 1016.0 |
| 20260510114130 | 12 | 0 | 0.0 | 0.0 | 0.00 | 0.00 | 0.00 | 99 | 1015.7 |
| 20260510113625 | 11 | 0 | 0.0 | 0.0 | 0.00 | 0.00 | 0.00 | 99 | 1015.4 |
| 20260510113123 | 11 | 0 | 0.0 | 0.0 | 0.00 | 0.00 | 0.00 | 99 | 1015.2 |
| 20260510112619 | 11 | 0 | 0.0 | 0.0 | 0.00 | 0.00 | 0.00 | 99 | 1015.3 |
| 20260510112115 | 11 | 0 | 0.0 | 0.0 | 0.00 | 0.00 | 0.00 | 99 | 1015.2 |
| 20260510111612 | 11 | 0 | 0.0 | 0.0 | 0.00 | 0.00 | 0.00 | 99 | 1015.1 |
| 20260510111102 | 11 | 0 | 0.0 | 0.0 | 0.00 | 0.00 | 0.00 | 99 | 1015.0 |
| 20260510110558 | 11 | 0 | 0.0 | 0.0 | 0.00 | 0.00 | 0.00 | 99 | 1014.8 |
| 20260510110055 | 10 | 0 | 0.0 | 0.0 | 0.00 | 0.00 | 0.00 | 99 | 1014.9 |
| 20260510105550 | 10 | 0 | 0.0 | 0.0 | 0.00 | 0.00 | 0.00 | 99 | 1014.6 |
| 20260510105045 | 10 | 0 | 0.0 | 0.0 | 0.00 | 0.00 | 0.00 | 99 | 1014.5 |
| 20260510104542 | 10 | 0 | 0.0 | 0.0 | 0.00 | 0.00 | 0.00 | 99 | 1014.4 |
| 20260510104038 | 10 | 0 | 0.0 | 0.0 | 0.00 | 0.00 | 0.00 | 99 | 1014.6 |
| 20260510103536 | 10 | 0 | 0.0 | 0.0 | 0.00 | 0.00 | 0.00 | 99 | 1014.4 |
| 20260510103032 | 10 | 0 | 0.0 | 0.0 | 0.00 | 0.00 | 0.00 | 99 | 1014.3 |
| 20260510102527 | 10 | 0 | 0.0 | 0.0 | 0.00 | 0.00 | 0.00 | 99 | 1014.4 |
| 20260510102024 | 10 | 0 | 0.0 | 0.0 | 0.00 | 0.00 | 0.00 | 99 | 1014.4 |
| 20260510101521 | 10 | 0 | 0.0 | 0.0 | 0.00 | 0.00 | 0.00 | 99 | 1014.2 |
| 20260510101020 | 10 | 357 | 0.0 | 0.0 | 0.00 | 0.00 | 0.00 | 99 | 1014.4 |
| 20260510100516 | 10 | 357 | 0.0 | 0.0 | 0.00 | 0.00 | 0.00 | 99 | 1014.1 |
| 20260510100013 | 10 | 357 | 0.0 | 0.0 | 0.00 | 0.00 | 0.00 | 99 | 1013.9 |
| 20260510095508 | 10 | 357 | 0.0 | 0.0 | 0.00 | 0.00 | 0.00 | 99 | 1014.0 |
| 20260510095008 | 10 | 357 | 0.0 | 0.0 | 0.00 | 0.00 | 0.00 | 99 | 1014.0 |
| 20260510094502 | 10 | 357 | 0.0 | 0.0 | 0.00 | 0.00 | 0.00 | 99 | 1014.0 |
| 20260510093958 | 10 | 357 | 0.0 | 0.0 | 0.00 | 0.00 | 0.00 | 99 | 1013.9 |
| 20260510093454 | 10 | 357 | 0.0 | 0.0 | 0.00 | 0.00 | 0.00 | 99 | 1013.6 |
| 20260510092951 | 10 | 357 | 0.0 | 0.0 | 0.00 | 0.00 | 0.00 | 99 | 1013.7 |
| 20260510092448 | 10 | 357 | 0.0 | 0.0 | 0.00 | 0.00 | 0.00 | 99 | 1013.7 |
| 20260510091942 | 10 | 9 | 0.0 | 0.0 | 0.00 | 0.00 | 0.00 | 99 | 1013.5 |
| 20260510091440 | 10 | 9 | 0.0 | 0.0 | 0.00 | 0.00 | 0.00 | 99 | 1013.2 |
| 20260510090936 | 10 | 9 | 0.0 | 0.0 | 0.00 | 0.00 | 0.00 | 99 | 1013.4 |
| 20260510090433 | 10 | 9 | 0.0 | 0.0 | 0.00 | 0.00 | 0.00 | 99 | 1013.1 |
| 20260510085929 | 10 | 9 | 0.0 | 0.0 | 0.00 | 0.00 | 0.00 | 99 | 1013.2 |
| 20260510085424 | 10 | 9 | 0.0 | 0.0 | 0.00 | 0.00 | 0.00 | 99 | 1013.4 |
| 20260510084920 | 10 | 9 | 0.0 | 0.0 | 0.00 | 0.00 | 0.00 | 99 | 1013.3 |
| 20260510084417 | 10 | 11 | 0.0 | 0.0 | 0.00 | 0.00 | 0.00 | 99 | 1013.1 |
| 20260510083914 | 10 | 11 | 0.0 | 0.0 | 0.00 | 0.00 | 0.00 | 99 | 1013.2 |
| 20260510083410 | 10 | 11 | 0.0 | 0.0 | 0.00 | 0.00 | 0.00 | 99 | 1013.3 |
| 20260510082905 | 10 | 15 | 0.0 | 0.0 | 0.00 | 0.00 | 0.00 | 99 | 1013.2 |
| 20260510082404 | 11 | 13 | 0.0 | 0.0 | 0.00 | 0.00 | 0.00 | 99 | 1013.4 |
| 20260510081901 | 11 | 15 | 0.0 | 0.0 | 0.00 | 0.00 | 0.00 | 99 | 1013.2 |
| 20260510081357 | 11 | 15 | 0.0 | 0.0 | 0.00 | 0.00 | 0.00 | 99 | 1013.2 |
| 20260510080855 | 11 | 13 | 0.0 | 0.0 | 0.00 | 0.00 | 0.00 | 99 | 1013.1 |
| 20260510080349 | 11 | 13 | 0.0 | 0.0 | 0.00 | 0.00 | 0.00 | 99 | 1013.1 |
| 20260510075846 | 11 | 28 | 0.0 | 0.0 | 0.00 | 0.00 | 0.00 | 99 | 1013.0 |
| 20260510075344 | 11 | 72 | 0.0 | 0.0 | 0.00 | 0.00 | 0.00 | 99 | 1013.1 |
| 20260510074840 | 11 | 2 | 0.0 | 0.0 | 0.00 | 0.00 | 0.00 | 99 | 1013.3 |
| 20260510074337 | 11 | 352 | 0.0 | 0.0 | 0.00 | 0.00 | 0.00 | 99 | 1013.0 |
| 20260510073834 | 11 | 352 | 0.0 | 0.0 | 0.00 | 0.00 | 0.00 | 99 | 1013.0 |
| 20260510073329 | 11 | 352 | 0.0 | 0.0 | 0.00 | 0.00 | 0.00 | 99 | 1013.3 |
| 20260510072825 | 11 | 355 | 0.0 | 0.0 | 0.00 | 0.00 | 0.00 | 99 | 1012.8 |
| 20260510072322 | 11 | 355 | 0.0 | 0.0 | 0.00 | 0.00 | 0.00 | 99 | 1012.9 |
| 20260510071818 | 11 | 355 | 0.0 | 0.0 | 0.00 | 0.00 | 0.00 | 99 | 1012.9 |
| 20260510071314 | 11 | 355 | 0.0 | 0.0 | 0.00 | 0.00 | 0.00 | 99 | 1013.0 |
| 20260510070814 | 11 | 355 | 0.0 | 0.0 | 0.00 | 0.00 | 0.00 | 99 | 1012.9 |
| 20260510070310 | 11 | 355 | 0.0 | 0.0 | 0.00 | 0.00 | 0.00 | 99 | 1012.8 |
| 20260510065810 | 11 | 355 | 0.0 | 0.0 | 0.00 | 0.00 | 0.00 | 99 | 1012.8 |
| 20260510065307 | 11 | 355 | 0.0 | 0.0 | 0.00 | 0.00 | 0.00 | 99 | 1012.8 |
| 20260510064804 | 11 | 355 | 0.0 | 0.0 | 0.00 | 0.00 | 0.00 | 98 | 1012.9 |
| 20260510064302 | 11 | 355 | 0.0 | 0.0 | 0.00 | 0.00 | 0.00 | 98 | 1012.9 |
| 20260510063757 | 11 | 355 | 0.0 | 0.0 | 0.00 | 0.00 | 0.00 | 98 | 1012.8 |
| 20260510063254 | 11 | 355 | 0.0 | 0.0 | 0.00 | 0.00 | 0.00 | 98 | 1012.8 |
| 20260510062750 | 11 | 355 | 0.0 | 0.0 | 0.00 | 0.00 | 0.00 | 98 | 1012.7 |
| 20260510062246 | 11 | 355 | 0.0 | 0.0 | 0.00 | 0.00 | 0.00 | 98 | 1012.9 |
| 20260510061741 | 11 | 355 | 0.0 | 0.0 | 0.00 | 0.00 | 0.00 | 98 | 1013.0 |
| 20260510061239 | 11 | 355 | 0.0 | 0.0 | 0.00 | 0.00 | 0.00 | 98 | 1012.7 |
| 20260510060735 | 12 | 355 | 0.0 | 0.0 | 0.00 | 0.00 | 0.00 | 98 | 1012.8 |
| 20260510060232 | 12 | 356 | 0.0 | 0.0 | 0.00 | 0.00 | 0.00 | 98 | 1012.9 |
| 20260510055728 | 12 | 344 | 0.0 | 1.6 | 0.00 | 0.00 | 0.00 | 98 | 1012.8 |
| 20260510055227 | 12 | 0 | 0.0 | 0.0 | 0.00 | 0.00 | 0.00 | 98 | 1012.8 |
| 20260510054721 | 12 | 341 | 0.0 | 1.6 | 0.00 | 0.00 | 0.00 | 97 | 1012.7 |
| 20260510054218 | 12 | 359 | 0.0 | 0.0 | 0.00 | 0.00 | 0.00 | 97 | 1012.8 |
| 20260510053717 | 12 | 359 | 0.0 | 0.0 | 0.00 | 0.00 | 0.00 | 97 | 1012.6 |
| 20260510053214 | 12 | 359 | 0.0 | 0.0 | 0.00 | 0.00 | 0.00 | 97 | 1012.6 |
| 20260510052709 | 12 | 355 | 0.0 | 0.0 | 0.00 | 0.00 | 0.00 | 97 | 1012.6 |
| 20260510052206 | 12 | 4 | 0.0 | 0.0 | 0.00 | 0.00 | 0.00 | 97 | 1012.6 |
| 20260510051701 | 12 | 10 | 0.0 | 0.0 | 0.00 | 0.00 | 0.00 | 97 | 1012.7 |
| 20260510051158 | 12 | 11 | 0.0 | 0.0 | 0.00 | 0.00 | 0.00 | 97 | 1012.8 |
| 20260510050656 | 12 | 355 | 0.0 | 0.0 | 0.00 | 0.00 | 0.00 | 96 | 1012.7 |
| 20260510050153 | 12 | 341 | 0.0 | 1.6 | 0.00 | 0.00 | 0.00 | 96 | 1012.6 |
| 20260510045649 | 12 | 357 | 0.0 | 0.0 | 0.00 | 0.00 | 0.00 | 96 | 1012.8 |
| 20260510045146 | 12 | 9 | 0.0 | 0.0 | 0.00 | 0.00 | 0.00 | 96 | 1012.8 |
| 20260510044642 | 12 | 1 | 0.0 | 0.0 | 0.00 | 0.00 | 0.00 | 96 | 1012.7 |
| 20260510044140 | 12 | 357 | 0.0 | 0.0 | 0.00 | 0.00 | 0.00 | 96 | 1012.7 |
| 20260510043635 | 12 | 357 | 0.0 | 0.0 | 0.00 | 0.00 | 0.00 | 95 | 1012.8 |
| 20260510043132 | 12 | 0 | 0.0 | 0.0 | 0.00 | 0.00 | 0.00 | 95 | 1012.9 |
| 20260510042630 | 12 | 0 | 0.0 | 0.0 | 0.00 | 0.00 | 0.00 | 95 | 1012.8 |
| 20260510042125 | 12 | 2 | 0.0 | 0.0 | 0.00 | 0.00 | 0.00 | 95 | 1012.8 |
| 20260510041623 | 12 | 353 | 0.0 | 0.0 | 0.00 | 0.00 | 0.00 | 95 | 1012.9 |
| 20260510041120 | 12 | 347 | 0.0 | 0.0 | 0.00 | 0.00 | 0.00 | 94 | 1012.8 |
| 20260510040617 | 12 | 1 | 0.0 | 0.0 | 0.00 | 0.00 | 0.00 | 94 | 1012.8 |
| 20260510040113 | 12 | 0 | 0.0 | 0.0 | 0.00 | 0.00 | 0.00 | 94 | 1012.6 |
| 20260510035609 | 12 | 358 | 0.0 | 0.0 | 0.00 | 0.53 | 0.53 | 94 | 1012.7 |
| 20260510035109 | 12 | 6 | 0.0 | 0.0 | 0.00 | 0.53 | 0.53 | 94 | 1012.8 |
| 20260510034607 | 12 | 1 | 0.0 | 0.0 | 0.00 | 0.53 | 0.53 | 93 | 1012.8 |
| 20260510034104 | 12 | 348 | 0.0 | 0.0 | 0.00 | 0.53 | 0.53 | 93 | 1012.7 |
| 20260510033600 | 12 | 348 | 0.0 | 0.0 | 0.00 | 0.53 | 0.53 | 93 | 1012.7 |
| 20260510033058 | 12 | 5 | 0.0 | 0.0 | 0.00 | 0.53 | 0.53 | 93 | 1012.7 |
| 20260510032554 | 12 | 359 | 0.0 | 0.0 | 0.00 | 0.53 | 0.53 | 93 | 1012.7 |
| 20260510032050 | 12 | 350 | 0.0 | 0.0 | 0.00 | 0.53 | 0.53 | 93 | 1012.4 |
| 20260510031550 | 12 | 5 | 0.0 | 0.0 | 0.00 | 0.53 | 0.53 | 92 | 1012.4 |
| 20260510031046 | 12 | 355 | 0.0 | 0.0 | 0.00 | 0.53 | 0.53 | 92 | 1012.3 |
| 20260510030541 | 12 | 355 | 0.0 | 0.0 | 0.00 | 0.53 | 0.53 | 92 | 1012.3 |
| 20260510030039 | 12 | 355 | 0.0 | 0.0 | 0.00 | 0.53 | 0.53 | 91 | 1012.3 |
| 20260510025536 | 12 | 353 | 0.0 | 0.0 | 0.00 | 0.53 | 0.53 | 91 | 1012.2 |
| 20260510025034 | 12 | 356 | 0.0 | 0.0 | 0.00 | 0.53 | 0.53 | 91 | 1012.3 |
| 20260510024530 | 12 | 359 | 0.0 | 0.0 | 0.00 | 0.53 | 0.53 | 91 | 1012.2 |
| 20260510024026 | 12 | 351 | 0.0 | 0.0 | 0.00 | 0.53 | 0.53 | 90 | 1012.3 |
| 20260510023522 | 12 | 349 | 0.0 | 0.0 | 0.00 | 0.53 | 0.53 | 90 | 1012.1 |
| 20260510023020 | 13 | 349 | 0.0 | 0.0 | 0.00 | 0.53 | 0.53 | 90 | 1012.1 |
| 20260510022519 | 13 | 349 | 0.0 | 0.0 | 0.00 | 0.53 | 0.53 | 90 | 1012.1 |
| 20260510022014 | 13 | 349 | 0.0 | 0.0 | 0.00 | 0.53 | 0.53 | 90 | 1012.1 |
| 20260510021511 | 13 | 349 | 0.0 | 0.0 | 0.00 | 0.53 | 0.53 | 89 | 1011.9 |
| 20260510021009 | 13 | 349 | 0.0 | 0.0 | 0.00 | 0.53 | 0.53 | 89 | 1012.1 |
| 20260510020503 | 13 | 351 | 0.0 | 0.0 | 0.00 | 0.53 | 0.53 | 89 | 1012.1 |
| 20260510015958 | 13 | 351 | 0.0 | 0.0 | 0.00 | 0.53 | 0.53 | 89 | 1011.7 |
| 20260510015454 | 13 | 351 | 0.0 | 0.0 | 0.00 | 0.53 | 0.53 | 88 | 1011.7 |
| 20260510014949 | 13 | 351 | 0.0 | 0.0 | 0.00 | 0.53 | 0.53 | 88 | 1011.6 |
| 20260510014447 | 13 | 350 | 0.0 | 0.0 | 0.00 | 0.53 | 0.53 | 87 | 1011.5 |
| 20260510013943 | 13 | 350 | 0.0 | 0.0 | 0.00 | 0.53 | 0.53 | 87 | 1011.3 |
| 20260510013432 | 13 | 350 | 0.0 | 0.0 | 0.00 | 0.53 | 0.53 | 87 | 1011.4 |
| 20260510012928 | 14 | 348 | 0.0 | 0.0 | 0.00 | 0.53 | 0.53 | 87 | 1011.3 |
| 20260510012423 | 14 | 348 | 0.0 | 0.0 | 0.00 | 0.53 | 0.53 | 87 | 1011.1 |
| 20260510011918 | 14 | 348 | 0.0 | 0.0 | 0.00 | 0.53 | 0.53 | 86 | 1011.0 |
| 20260510011413 | 14 | 348 | 0.0 | 0.0 | 0.00 | 0.53 | 0.53 | 86 | 1011.0 |
| 20260510010909 | 15 | 348 | 0.0 | 0.0 | 0.00 | 0.53 | 0.53 | 85 | 1010.9 |
| 20260510010407 | 15 | 350 | 0.0 | 0.0 | 0.00 | 0.53 | 0.53 | 85 | 1011.0 |
| 20260510005903 | 15 | 347 | 0.0 | 0.0 | 0.00 | 0.53 | 0.53 | 84 | 1010.9 |
| 20260510005400 | 15 | 349 | 0.0 | 0.0 | 0.00 | 0.53 | 0.53 | 82 | 1010.7 |
| 20260510004857 | 15 | 349 | 0.0 | 0.0 | 0.00 | 0.53 | 0.53 | 83 | 1010.7 |
| 20260510004355 | 15 | 349 | 0.0 | 0.0 | 0.00 | 0.53 | 0.53 | 83 | 1010.8 |
| 20260510003852 | 16 | 349 | 0.0 | 0.0 | 0.00 | 0.53 | 0.53 | 81 | 1010.5 |
| 20260510003349 | 16 | 349 | 0.0 | 0.0 | 0.00 | 0.53 | 0.53 | 81 | 1010.5 |
| 20260510002848 | 16 | 352 | 0.0 | 0.0 | 0.00 | 0.53 | 0.53 | 81 | 1010.2 |
| 20260510002345 | 16 | 347 | 0.0 | 0.0 | 0.00 | 0.53 | 0.53 | 79 | 1010.3 |
| 20260510001842 | 17 | 351 | 0.0 | 0.0 | 0.00 | 0.53 | 0.53 | 79 | 1010.1 |
| 20260510001340 | 17 | 349 | 0.0 | 0.0 | 0.00 | 0.53 | 0.53 | 77 | 1010.2 |
| 20260510000836 | 17 | 339 | 0.0 | 0.0 | 0.00 | 0.53 | 0.53 | 76 | 1010.3 |
| 20260510000333 | 18 | 22 | 0.0 | 1.6 | 0.00 | 0.53 | 0.53 | 71 | 1010.1 |
| 20260509235830 | 18 | 2 | 0.0 | 0.0 | 0.00 | 0.53 | 0.53 | 70 | 1010.1 |
| 20260509235326 | 19 | 348 | 0.0 | 0.0 | 0.00 | 0.53 | 0.53 | 69 | 1010.2 |
| 20260509234822 | 20 | 354 | 0.0 | 0.0 | 0.00 | 0.53 | 0.53 | 65 | 1010.2 |
| 20260509234319 | 20 | 336 | 0.0 | 3.2 | 0.00 | 0.53 | 0.53 | 57 | 1010.0 |
| 20260509233818 | 20 | 9 | 1.6 | 3.2 | 0.00 | 0.53 | 0.53 | 55 | 1009.9 |
| 20260509233315 | 20 | 332 | 0.0 | 3.2 | 0.00 | 0.53 | 0.53 | 62 | 1010.0 |
| 20260509232810 | 21 | 3 | 0.0 | 1.6 | 0.00 | 0.53 | 0.53 | 55 | 1009.9 |
| 20260509232308 | 21 | 357 | 0.0 | 3.2 | 0.00 | 0.53 | 0.53 | 55 | 1009.9 |
| 20260509231804 | 21 | 59 | 0.0 | 4.8 | 0.00 | 0.53 | 0.53 | 54 | 1009.7 |
| 20260509231301 | 21 | 339 | 0.0 | 4.8 | 0.00 | 0.53 | 0.53 | 54 | 1009.8 |
| 20260509230759 | 21 | 351 | 0.0 | 4.8 | 0.00 | 0.53 | 0.53 | 53 | 1010.0 |
| 20260509230256 | 21 | 73 | 1.6 | 4.8 | 0.00 | 0.53 | 0.53 | 54 | 1009.7 |
| 20260509225751 | 21 | 15 | 3.2 | 4.8 | 0.00 | 0.53 | 0.53 | 51 | 1009.7 |
| 20260509225247 | 21 | 14 | 0.0 | 1.6 | 0.00 | 0.53 | 0.53 | 55 | 1009.8 |
| 20260509224743 | 21 | 13 | 1.6 | 9.7 | 0.00 | 0.53 | 0.53 | 54 | 1009.8 |
| 20260509224241 | 21 | 11 | 3.2 | 6.4 | 0.00 | 0.53 | 0.53 | 54 | 1009.8 |
| 20260509223737 | 21 | 355 | 3.2 | 3.2 | 0.00 | 0.53 | 0.53 | 56 | 1009.9 |
| 20260509223235 | 21 | 74 | 1.6 | 4.8 | 0.00 | 0.53 | 0.53 | 53 | 1009.8 |
| 20260509222731 | 21 | 21 | 1.6 | 3.2 | 0.00 | 0.53 | 0.53 | 56 | 1009.9 |
| 20260509222226 | 21 | 29 | 0.0 | 4.8 | 0.00 | 0.53 | 0.53 | 53 | 1009.9 |
| 20260509221722 | 21 | 158 | 3.2 | 4.8 | 0.00 | 0.53 | 0.53 | 53 | 1010.0 |
| 20260509221219 | 21 | 333 | 1.6 | 4.8 | 0.00 | 0.53 | 0.53 | 54 | 1009.9 |
| 20260509220714 | 22 | 256 | 0.0 | 9.7 | 0.00 | 0.53 | 0.53 | 52 | 1010.1 |
| 20260509220211 | 22 | 19 | 1.6 | 1.6 | 0.00 | 0.53 | 0.53 | 56 | 1010.2 |
| 20260509215707 | 21 | 345 | 4.8 | 9.7 | 0.00 | 0.53 | 0.53 | 51 | 1010.1 |
| 20260509215204 | 22 | 11 | 0.0 | 1.6 | 0.00 | 0.53 | 0.53 | 54 | 1010.1 |
| 20260509214701 | 22 | 330 | 1.6 | 4.8 | 0.00 | 0.53 | 0.53 | 51 | 1010.1 |
| 20260509214158 | 22 | 40 | 3.2 | 4.8 | 0.00 | 0.53 | 0.53 | 50 | 1010.4 |
| 20260509213655 | 22 | 35 | 1.6 | 6.4 | 0.00 | 0.53 | 0.53 | 51 | 1010.4 |
| 20260509213150 | 22 | 1 | 4.8 | 9.7 | 0.00 | 0.53 | 0.53 | 52 | 1010.4 |
| 20260509212648 | 22 | 63 | 3.2 | 9.7 | 0.00 | 0.53 | 0.53 | 51 | 1010.2 |
| 20260509212145 | 22 | 353 | 3.2 | 3.2 | 0.00 | 0.53 | 0.53 | 55 | 1010.0 |
| 20260509211641 | 22 | 85 | 3.2 | 6.4 | 0.00 | 0.53 | 0.53 | 51 | 1010.2 |
| 20260509211137 | 22 | 119 | 1.6 | 3.2 | 0.00 | 0.53 | 0.53 | 54 | 1010.3 |
| 20260509210634 | 22 | 47 | 0.0 | 4.8 | 0.00 | 0.53 | 0.53 | 54 | 1010.5 |
| 20260509210131 | 22 | 5 | 3.2 | 4.8 | 0.00 | 0.53 | 0.53 | 52 | 1010.3 |
| 20260509205626 | 22 | 196 | 3.2 | 6.4 | 0.00 | 0.53 | 0.53 | 52 | 1010.0 |
| 20260509205120 | 22 | 19 | 3.2 | 6.4 | 0.00 | 0.53 | 0.53 | 53 | 1010.3 |
| 20260509204618 | 22 | 36 | 4.8 | 9.7 | 0.00 | 0.53 | 0.53 | 52 | 1010.4 |
| 20260509204114 | 22 | 85 | 1.6 | 3.2 | 0.00 | 0.53 | 0.53 | 52 | 1010.4 |
| 20260509203610 | 22 | 333 | 3.2 | 3.2 | 0.00 | 0.53 | 0.53 | 53 | 1010.4 |
| 20260509203109 | 22 | 318 | 1.6 | 3.2 | 0.00 | 0.53 | 0.53 | 54 | 1010.4 |
| 20260509202609 | 21 | 69 | 1.6 | 4.8 | 0.00 | 0.53 | 0.53 | 53 | 1010.5 |
| 20260509202105 | 22 | 122 | 3.2 | 6.4 | 0.00 | 0.53 | 0.53 | 53 | 1010.7 |
| 20260509201604 | 21 | 18 | 0.0 | 1.6 | 0.00 | 0.53 | 0.53 | 56 | 1010.6 |
| 20260509201103 | 21 | 117 | 3.2 | 3.2 | 0.00 | 0.53 | 0.53 | 55 | 1010.6 |
| 20260509200602 | 21 | 55 | 0.0 | 4.8 | 0.00 | 0.53 | 0.53 | 54 | 1010.8 |
| 20260509200059 | 21 | 3 | 1.6 | 6.4 | 0.00 | 0.53 | 0.53 | 55 | 1010.7 |
| 20260509195554 | 21 | 9 | 0.0 | 1.6 | 0.00 | 0.53 | 0.53 | 59 | 1010.9 |
| 20260509195049 | 22 | 156 | 1.6 | 3.2 | 0.00 | 0.53 | 0.53 | 55 | 1010.8 |
| 20260509194544 | 21 | 351 | 3.2 | 6.4 | 0.00 | 0.53 | 0.53 | 56 | 1010.8 |
| 20260509194042 | 21 | 91 | 1.6 | 3.2 | 0.00 | 0.53 | 0.53 | 54 | 1011.1 |
| 20260509193537 | 21 | 23 | 1.6 | 3.2 | 0.00 | 0.53 | 0.53 | 56 | 1011.2 |
| 20260509193034 | 20 | 66 | 1.6 | 3.2 | 0.00 | 0.53 | 0.53 | 57 | 1011.2 |
| 20260509192530 | 21 | 190 | 3.2 | 4.8 | 0.00 | 0.53 | 0.53 | 56 | 1011.3 |
| 20260509192025 | 21 | 132 | 3.2 | 3.2 | 0.00 | 0.53 | 0.53 | 54 | 1011.0 |
| 20260509191520 | 21 | 157 | 1.6 | 4.8 | 0.00 | 0.53 | 0.53 | 55 | 1011.0 |
| 20260509191016 | 21 | 69 | 1.6 | 1.6 | 0.00 | 0.53 | 0.53 | 57 | 1011.2 |
| 20260509190513 | 21 | 106 | 1.6 | 3.2 | 0.00 | 0.53 | 0.53 | 55 | 1011.3 |
| 20260509190011 | 21 | 142 | 0.0 | 6.4 | 0.00 | 0.53 | 0.53 | 56 | 1011.3 |
| 20260509185508 | 21 | 337 | 0.0 | 1.6 | 0.00 | 0.53 | 0.53 | 59 | 1011.2 |
| 20260509185004 | 20 | 355 | 0.0 | 1.6 | 0.00 | 0.53 | 0.53 | 58 | 1011.2 |
| 20260509184503 | 20 | 35 | 1.6 | 6.4 | 0.00 | 0.53 | 0.53 | 58 | 1011.4 |
| 20260509183958 | 20 | 1 | 0.0 | 3.2 | 0.00 | 0.53 | 0.53 | 59 | 1011.1 |
| 20260509183452 | 20 | 307 | 0.0 | 3.2 | 0.00 | 0.53 | 0.53 | 62 | 1011.4 |
| 20260509182949 | 21 | 330 | 1.6 | 6.4 | 0.00 | 0.53 | 0.53 | 59 | 1011.2 |
| 20260509182445 | 21 | 35 | 0.0 | 3.2 | 0.00 | 0.53 | 0.53 | 57 | 1011.2 |
| 20260509181943 | 21 | 60 | 3.2 | 6.4 | 0.00 | 0.53 | 0.53 | 55 | 1011.3 |
| 20260509181441 | 21 | 335 | 1.6 | 3.2 | 0.00 | 0.53 | 0.53 | 61 | 1011.2 |
| 20260509180938 | 20 | 347 | 4.8 | 4.8 | 0.00 | 0.53 | 0.53 | 54 | 1011.5 |
| 20260509180433 | 20 | 1 | 4.8 | 9.7 | 0.00 | 0.53 | 0.53 | 55 | 1011.2 |
| 20260509175931 | 21 | 233 | 1.6 | 3.2 | 0.00 | 0.53 | 0.53 | 56 | 1011.4 |